When you browse on this site, cookies collect data to enhance your experience and personalize the content and advertising you see.
Visit our Privacy Policy to learn more. By continuing to use the site, you agree to this use of cookies and data.
  • Em Portugal
  • Lista de países
  • Para 7 dias
  • Temperatura da água
  • Mapa do tempo
  • Widgets de tempo
  • user-avatar
    Iniciar Sessão

    Previsão horária em Chios

    Hoje, 27 Maio, Quarta-feira

    Tempo Temperatura Precipitação Vento Pressão Humidade
    00:00 +18°C° 0.6 mm 3 m/s 756 mmHg 70%
    01:00 +17°C° 0.6 mm 3 m/s 755 mmHg 72%
    02:00 +16°C° 0 mm 5 m/s 755 mmHg 79%
    03:00 +15°C° 1.6 mm 5 m/s 755 mmHg 81%
    04:00 +14°C° 1.6 mm 6 m/s 755 mmHg 83%
    05:00 +14°C° 1.6 mm 6 m/s 755 mmHg 85%
    06:00 +14°C° 0.5 mm 6 m/s 755 mmHg 83%
    07:00 +15°C° 0.5 mm 7 m/s 755 mmHg 80%
    08:00 +15°C° 0 mm 6 m/s 756 mmHg 77%
    09:00 +15°C° 0.8 mm 6 m/s 756 mmHg 79%
    10:00 +15°C° 0.8 mm 7 m/s 756 mmHg 80%
    11:00 +14°C° 0.8 mm 7 m/s 757 mmHg 81%
    12:00 +15°C° 0.3 mm 7 m/s 757 mmHg 80%
    13:00 +15°C° 0.3 mm 7 m/s 757 mmHg 80%
    14:00 +15°C° 0.3 mm 7 m/s 757 mmHg 80%
    15:00 +15°C° 0.2 mm 7 m/s 757 mmHg 79%
    16:00 +15°C° 0.2 mm 6 m/s 757 mmHg 78%
    17:00 +14°C° 0.2 mm 6 m/s 757 mmHg 77%
    18:00 +14°C° 0 mm 6 m/s 757 mmHg 76%
    19:00 +14°C° 0 mm 7 m/s 757 mmHg 75%
    20:00 +14°C° 0 mm 7 m/s 757 mmHg 74%
    21:00 +14°C° 0 mm 7 m/s 757 mmHg 73%
    22:00 +13°C° 0 mm 8 m/s 758 mmHg 73%
    23:00 +13°C° 0 mm 8 m/s 758 mmHg 72%

    Amanhã, 28 Maio, Quinta-feira

    Tempo Temperatura Precipitação Vento Pressão Humidade
    00:00 +13°C° 0 mm 8 m/s 758 mmHg 74%
    01:00 +12°C° 0 mm 7 m/s 758 mmHg 76%
    02:00 +13°C° 0 mm 6 m/s 758 mmHg 77%
    03:00 +13°C° 0 mm 6 m/s 757 mmHg 79%
    04:00 +13°C° 0 mm 6 m/s 757 mmHg 81%
    05:00 +13°C° 0 mm 5 m/s 757 mmHg 83%
    06:00 +14°C° 0 mm 5 m/s 757 mmHg 76%
    07:00 +15°C° 0 mm 5 m/s 757 mmHg 69%
    08:00 +18°C° 0 mm 4 m/s 758 mmHg 62%
    09:00 +19°C° 0 mm 4 m/s 758 mmHg 58%
    10:00 +20°C° 0 mm 4 m/s 758 mmHg 54%
    11:00 +21°C° 0 mm 4 m/s 758 mmHg 49%
    12:00 +21°C° 0 mm 4 m/s 758 mmHg 50%
    13:00 +21°C° 0 mm 5 m/s 757 mmHg 50%
    14:00 +21°C° 0 mm 5 m/s 757 mmHg 50%
    15:00 +21°C° 0 mm 5 m/s 757 mmHg 53%
    16:00 +20°C° 0 mm 5 m/s 757 mmHg 56%
    17:00 +20°C° 0 mm 5 m/s 756 mmHg 59%
    18:00 +19°C° 0 mm 5 m/s 756 mmHg 63%
    19:00 +18°C° 0 mm 4 m/s 756 mmHg 67%
    20:00 +17°C° 0 mm 3 m/s 756 mmHg 71%
    21:00 +17°C° 0 mm 3 m/s 756 mmHg 73%
    22:00 +16°C° 0 mm 3 m/s 756 mmHg 75%
    23:00 +16°C° 0 mm 2 m/s 756 mmHg 78%

    Depois de amanhã, 29 Maio, Sexta-feira

    Tempo Temperatura Precipitação Vento Pressão Humidade
    00:00 +16°C° 0 mm 2 m/s 756 mmHg 78%
    01:00 +16°C° 0 mm 2 m/s 756 mmHg 78%
    02:00 +16°C° 0 mm 2 m/s 756 mmHg 78%
    03:00 +16°C° 0 mm 1 m/s 756 mmHg 78%
    04:00 +15°C° 0 mm 1 m/s 756 mmHg 79%
    05:00 +15°C° 0 mm 1 m/s 756 mmHg 80%
    06:00 +18°C° 0 mm 1 m/s 756 mmHg 72%
    07:00 +19°C° 0 mm 1 m/s 756 mmHg 65%
    08:00 +21°C° 0 mm 1 m/s 756 mmHg 58%
    09:00 +21°C° 0 mm 2 m/s 757 mmHg 56%
    10:00 +23°C° 0 mm 2 m/s 757 mmHg 53%
    11:00 +22°C° 0 mm 3 m/s 757 mmHg 50%
    12:00 +22°C° 0 mm 3 m/s 757 mmHg 52%
    13:00 +22°C° 0 mm 4 m/s 757 mmHg 53%
    14:00 +22°C° 0 mm 4 m/s 756 mmHg 54%
    15:00 +22°C° 0 mm 4 m/s 756 mmHg 53%
    16:00 +22°C° 0 mm 3 m/s 756 mmHg 52%
    17:00 +22°C° 0 mm 3 m/s 756 mmHg 51%
    18:00 +21°C° 0 mm 2 m/s 756 mmHg 56%
    19:00 +20°C° 0 mm 2 m/s 756 mmHg 61%
    20:00 +19°C° 0 mm 1 m/s 756 mmHg 67%
    21:00 +19°C° 0 mm 1 m/s 756 mmHg 68%
    22:00 +19°C° 0 mm 1 m/s 756 mmHg 69%
    23:00 +19°C° 0 mm 1 m/s 756 mmHg 70%

    30 Maio, Sábado

    Tempo Temperatura Precipitação Vento Pressão Humidade
    00:00 +18°C° 0 mm 2 m/s 756 mmHg 69%
    01:00 +17°C° 0 mm 2 m/s 756 mmHg 69%
    02:00 +17°C° 0 mm 3 m/s 756 mmHg 69%
    03:00 +17°C° 0 mm 3 m/s 756 mmHg 70%
    04:00 +17°C° 0 mm 3 m/s 756 mmHg 72%
    05:00 +17°C° 0 mm 3 m/s 756 mmHg 74%
    06:00 +18°C° 0 mm 3 m/s 756 mmHg 70%
    07:00 +20°C° 0 mm 3 m/s 756 mmHg 66%
    08:00 +21°C° 0 mm 3 m/s 756 mmHg 61%
    09:00 +22°C° 0 mm 3 m/s 757 mmHg 58%
    10:00 +22°C° 0 mm 4 m/s 757 mmHg 55%
    11:00 +23°C° 0 mm 4 m/s 757 mmHg 52%
    12:00 +23°C° 0 mm 4 m/s 757 mmHg 51%
    13:00 +25°C° 0 mm 4 m/s 757 mmHg 50%
    14:00 +25°C° 0 mm 5 m/s 756 mmHg 49%
    15:00 +23°C° 0 mm 5 m/s 756 mmHg 54%
    16:00 +23°C° 0 mm 5 m/s 756 mmHg 58%
    17:00 +22°C° 0 mm 5 m/s 756 mmHg 62%
    18:00 +21°C° 0 mm 4 m/s 756 mmHg 68%
    19:00 +20°C° 0 mm 4 m/s 756 mmHg 74%
    20:00 +19°C° 0 mm 4 m/s 756 mmHg 80%
    21:00 +19°C° 0 mm 4 m/s 756 mmHg 81%
    22:00 +19°C° 0 mm 4 m/s 757 mmHg 83%
    23:00 +18°C° 0 mm 4 m/s 757 mmHg 84%

    31 Maio, Domingo

    Tempo Temperatura Precipitação Vento Pressão Humidade
    00:00 +18°C° 0 mm 4 m/s 757 mmHg 86%
    01:00 +18°C° 0 mm 4 m/s 756 mmHg 87%
    02:00 +18°C° 0 mm 4 m/s 756 mmHg 88%
    03:00 +18°C° 0 mm 4 m/s 756 mmHg 88%
    04:00 +16°C° 0 mm 5 m/s 756 mmHg 88%
    05:00 +16°C° 0 mm 5 m/s 756 mmHg 88%
    06:00 +17°C° 0 mm 5 m/s 756 mmHg 82%
    07:00 +19°C° 0 mm 6 m/s 756 mmHg 76%
    08:00 +20°C° 0 mm 6 m/s 756 mmHg 70%
    09:00 +21°C° 0 mm 6 m/s 756 mmHg 68%
    10:00 +21°C° 0 mm 6 m/s 756 mmHg 66%
    11:00 +22°C° 0 mm 7 m/s 756 mmHg 64%
    12:00 +22°C° 0 mm 7 m/s 756 mmHg 62%
    13:00 +22°C° 0 mm 7 m/s 756 mmHg 61%
    14:00 +22°C° 0 mm 7 m/s 756 mmHg 59%
    15:00 +22°C° 0 mm 7 m/s 755 mmHg 60%
    16:00 +21°C° 0 mm 6 m/s 755 mmHg 61%
    17:00 +21°C° 0 mm 6 m/s 755 mmHg 62%
    18:00 +20°C° 0 mm 5 m/s 755 mmHg 66%
    19:00 +20°C° 0 mm 5 m/s 755 mmHg 69%
    20:00 +19°C° 0 mm 5 m/s 755 mmHg 72%
    21:00 +18°C° 0 mm 4 m/s 755 mmHg 72%
    22:00 +18°C° 0 mm 3 m/s 755 mmHg 71%
    23:00 +17°C° 0 mm 2 m/s 755 mmHg 71%

    1 Junho, Segunda-feira

    Tempo Temperatura Precipitação Vento Pressão Humidade
    00:00 +17°C° 0 mm 2 m/s 755 mmHg 71%
    01:00 +16°C° 0 mm 2 m/s 755 mmHg 72%
    02:00 +16°C° 0 mm 2 m/s 754 mmHg 72%
    03:00 +16°C° 0 mm 2 m/s 754 mmHg 74%
    04:00 +16°C° 0 mm 2 m/s 754 mmHg 75%
    05:00 +16°C° 0 mm 2 m/s 754 mmHg 77%
    06:00 +17°C° 0 mm 2 m/s 754 mmHg 71%
    07:00 +19°C° 0 mm 2 m/s 754 mmHg 64%
    08:00 +20°C° 0 mm 2 m/s 755 mmHg 58%
    09:00 +21°C° 0 mm 2 m/s 755 mmHg 56%
    10:00 +23°C° 0 mm 2 m/s 755 mmHg 54%
    11:00 +24°C° 0 mm 2 m/s 755 mmHg 52%
    12:00 +24°C° 0.1 mm 2 m/s 755 mmHg 52%
    13:00 +24°C° 0.1 mm 2 m/s 754 mmHg 52%
    14:00 +24°C° 0.1 mm 2 m/s 754 mmHg 52%
    15:00 +24°C° 0 mm 2 m/s 754 mmHg 52%
    16:00 +24°C° 0 mm 2 m/s 754 mmHg 53%
    17:00 +23°C° 0 mm 2 m/s 754 mmHg 54%
    18:00 +22°C° 0 mm 1 m/s 754 mmHg 60%
    19:00 +21°C° 0 mm 1 m/s 754 mmHg 66%
    20:00 +20°C° 0 mm 1 m/s 754 mmHg 72%
    21:00 +20°C° 0 mm 1 m/s 754 mmHg 74%
    22:00 +19°C° 0 mm 1 m/s 754 mmHg 76%
    23:00 +19°C° 0 mm 1 m/s 754 mmHg 78%
    Mostrar mais